"Pseudo-MPEC" for ZTS2139

Created 2024 Aug 2 11:22:21 UT using Find_Orb

Click here for an explanation of pseudo-MPECs

 
 Astrometry: 
     ZTS2139  C2024 07 27.47781305 12 09.82 +29 04 54.2    ~7V3b 19.53r NEOCPI41
     ZTS2139  C2024 07 27.48256905 12 10.71 +29 04 56.6    ~7V3b 19.30r NEOCPI41
     ZTS2139* C2024 07 28.48003505 15 09.13 +29 12 24.9    ~7V07 19.30r NEOCPI41
     ZTS2139  C2024 07 28.48291705 15 09.63 +29 12 25.7    ~7V07 19.11r NEOCPI41
     ZTS2139  C2024 07 28.48688705 15 10.34 +29 12 27.4    ~7V07 19.11r NEOCPI41

Station data:
(I41) Palomar Mountain--ZTF  (N33.357336 W116.859780)  US/California.
   Observers B. T. Bolin, Z. T. F. Collaboration. Measurers B. T. Bolin,
   Z.-Y. Lin, F. J. Masci. 1.2-m f/2.4 Schmidt.

Orbital elements:  ZTS2139
   Perihelion 2024 Jun 17.75305 +/- 68.9 TT = 18:04:23 (JD 2460479.25305)
Epoch 2024 Jul 28.0 TT = JDT 2460519.5   Earth MOID: 0.1449   Ju: 0.4314
M   2.68140845 +/- 90               Ve: 0.0214   Sa: 0.2900      AutoNEOCP
n   0.06662388 +/-                  Peri.  358.75420 +/- 100
a   6.02628143 +/-                  Node   323.73291 +/- 60
e   0.8857142 +/- 0.237             Incl.    9.10450 +/- 60
P  14.79361                H 16.87  G  0.15   U 12.2  SR
q 0.68871802 +/- 0.468    Q 11.3638448 +/- 9.28           (J2000 ecliptic)
From 5 observations 2024 July 27-28 (24.2 hr); mean residual 0".19
Residuals in arcseconds: 
240727 I41  .24-  .07-    240728 I41  .06+  .37+    240728 I41  .01+  .24-    
240727 I41  .24+  .07+    240728 I41  .08-  .14-    

Ephemerides (geocentric):
Date (UTC) HH   RA             Dec           delta  r     elong  mag " sig PA
---- --------  ------------   ------------  ------ ------ -----  --- --------
2024 08 02 11  05 29 26.079   +29 44 45.46  1.4801 1.0881  47.3 19.6 1160  95
2024 08 02 12  05 29 33.020   +29 44 59.76  1.4805 1.0887  47.3 19.6 1179  95
2024 08 02 13  05 29 39.958   +29 45 14.03  1.4809 1.0892  47.3 19.6 1199  95
2024 08 02 14  05 29 46.892   +29 45 28.27  1.4812 1.0898  47.4 19.6 1218  95
2024 08 02 15  05 29 53.821   +29 45 42.49  1.4816 1.0903  47.4 19.6 1238  95
2024 08 02 16  05 30 00.747   +29 45 56.67  1.4820 1.0908  47.4 19.6 1258  95
2024 08 02 17  05 30 07.669   +29 46 10.82  1.4824 1.0914  47.4 19.6 1278  95
2024 08 02 18  05 30 14.587   +29 46 24.95  1.4828 1.0919  47.4 19.6 1298  95
2024 08 02 19  05 30 21.502   +29 46 39.04  1.4832 1.0925  47.4 19.6 1318  95
2024 08 02 20  05 30 28.412   +29 46 53.10  1.4836 1.0930  47.5 19.6 1339  95
2024 08 02 21  05 30 35.318   +29 47 07.14  1.4840 1.0936  47.5 19.6 1359  95
2024 08 02 22  05 30 42.221   +29 47 21.15  1.4844 1.0941  47.5 19.6 1380  95
2024 08 02 23  05 30 49.119   +29 47 35.12  1.4848 1.0947  47.5 19.6 1401  95
2024 08 03 00  05 30 56.014   +29 47 49.07  1.4851 1.0952  47.5 19.6 1423  95
2024 08 03 01  05 31 02.905   +29 48 02.99  1.4855 1.0957  47.5 19.6 1444  95
2024 08 03 02  05 31 09.792   +29 48 16.88  1.4859 1.0963  47.5 19.6 1466  95
2024 08 03 03  05 31 16.675   +29 48 30.74  1.4863 1.0968  47.6 19.6 1488  95
2024 08 03 04  05 31 23.554   +29 48 44.58  1.4867 1.0974  47.6 19.6 1510  95
2024 08 03 05  05 31 30.430   +29 48 58.38  1.4871 1.0979  47.6 19.6 1532  95
2024 08 03 06  05 31 37.301   +29 49 12.15  1.4875 1.0985  47.6 19.6 1554  95
2024 08 03 07  05 31 44.169   +29 49 25.90  1.4879 1.0990  47.6 19.6 1577  95
2024 08 03 08  05 31 51.032   +29 49 39.62  1.4882 1.0996  47.6 19.6 1600  95
2024 08 03 09  05 31 57.892   +29 49 53.30  1.4886 1.1001  47.6 19.6 1623  95
2024 08 03 10  05 32 04.748   +29 50 06.96  1.4890 1.1006  47.7 19.6 1646  95
2024 08 03 11  05 32 11.600   +29 50 20.60  1.4894 1.1012  47.7 19.6 1669  95
2024 08 03 12  05 32 18.448   +29 50 34.20  1.4898 1.1017  47.7 19.6 1693  95
2024 08 03 13  05 32 25.292   +29 50 47.77  1.4902 1.1023  47.7 19.6 1717  95
2024 08 03 14  05 32 32.132   +29 51 01.32  1.4905 1.1028  47.7 19.6 1741  95
2024 08 03 15  05 32 38.969   +29 51 14.84  1.4909 1.1034  47.7 19.6 1765  95
2024 08 03 16  05 32 45.801   +29 51 28.33  1.4913 1.1039  47.7 19.6 1790  95
2024 08 03 17  05 32 52.630   +29 51 41.79  1.4917 1.1045  47.8 19.6 1814  95
2024 08 03 18  05 32 59.455   +29 51 55.22  1.4921 1.1050  47.8 19.6 1839  95
2024 08 03 19  05 33 06.276   +29 52 08.62  1.4925 1.1056  47.8 19.6 1864  95
2024 08 03 20  05 33 13.093   +29 52 22.00  1.4928 1.1061  47.8 19.6 1889  95
2024 08 03 21  05 33 19.906   +29 52 35.35  1.4932 1.1067  47.8 19.6 1915  95
2024 08 03 22  05 33 26.715   +29 52 48.67  1.4936 1.1072  47.8 19.6 1940  94
2024 08 03 23  05 33 33.520   +29 53 01.96  1.4940 1.1077  47.9 19.6 1966  94
2024 08 04 00  05 33 40.322   +29 53 15.23  1.4944 1.1083  47.9 19.6 1992  94
2024 08 04 01  05 33 47.119   +29 53 28.47  1.4947 1.1088  47.9 19.6 2019  94
2024 08 04 02  05 33 53.913   +29 53 41.67  1.4951 1.1094  47.9 19.6 2045  94
2024 08 04 03  05 34 00.703   +29 53 54.86  1.4955 1.1099  47.9 19.6 2072  94
2024 08 04 04  05 34 07.489   +29 54 08.01  1.4959 1.1105  47.9 19.6 2099  94
2024 08 04 05  05 34 14.271   +29 54 21.14  1.4963 1.1110  47.9 19.6 2126  94
2024 08 04 06  05 34 21.049   +29 54 34.23  1.4966 1.1116  48.0 19.6 2153  94
2024 08 04 07  05 34 27.823   +29 54 47.31  1.4970 1.1121  48.0 19.6 2181  94
2024 08 04 08  05 34 34.594   +29 55 00.35  1.4974 1.1127  48.0 19.6 2209  94
2024 08 04 09  05 34 41.360   +29 55 13.36  1.4978 1.1132  48.0 19.6 2237  94
2024 08 04 10  05 34 48.123   +29 55 26.35  1.4981 1.1138  48.0 19.6 2265  94